THOR ABLESTAR DEB, 548

Orbit data source: Space-Track

THOR ABLESTAR DEB, 548 is space debris in LEO originally from a launch on Thu, 29 Jun 1961 UTC launched from the Air Force Eastern Test Range (AFETR). Debris objects in space refer to the collection of defunct objects orbiting the Earth. Examples of debris include non-operational satellites, rocket bodies, and fragments generated from explosions, collisions, or faulty payload assembly.

Loading next visibility...
Identifier
548, 1961-015GH
Orbit
LEO
Country
Flag of USUS
Related business
Manufacturer
Unknown
Mission
Spacecraft
Bus & Motor
Unknown
Mass
Unknown
Launch date (UTC)
1961-06-29 (64 years ago)
Launch vehicle
Unknown
Launch site
Air Force Eastern Test Range (AFETR)
Object type
Payload
Rocket body
Debris
Shape & HBR
Unknown
Radar Cross Section
Small (<0.1 m²)

Expand to show TLE details & history
Last TLE update: 1 day ago

TLE from 1 day ago
0 THOR ABLESTAR DEB
1 00548U 61015GH  25258.63215425  .00001714  00000-0  25499-3 0  9995
2 00548  66.6713 359.8660 0104108 323.4440  35.9604 14.74174388363320
Epoch: 2025-09-15T15:10Z
TLE epoch observation values (Epoch: 2025-09-15T15:10:18.127Z)
Latitude
Longitude
137.45645°
Altitude
590.975 km
Speed
7.597 km/s
True Right ascension
23h 59m 27s
True Declination
0° 00' 00"
Sunlit
Object was in full shadow at epoch
Visualization orbit readout
Latitude
Unknown
Longitude
Unknown
Altitude
Unknown
Speed
Unknown
Apparent Right ascension
Unknown
Apparent Declination
Unknown
Sunlit
N/A
Visualization observer readout
Local Sidereal Time
07:46:55
Azimuth
Unknown
Elevation
Unknown
Doppler factor
Unknown
Orbital elements
Apogee altitude
719.246 km
Perigee altitude
572.99 km
Semi-major axis
7,024.255 km
Eccentricity
0.01041
Inclination
66.6713°
RAAN
359.866°
Arg. of periapsis
323.444°
True anomaly
36.66839°
Mean anomaly
35.9604°
Eccentric anomaly
36.31365°
Mean motion
3.68674 °/min
Orbital period
97.65 mins
BSTAR
0.00025499
Loading maneuver chart data...
Computing Atmospheric mass density...

Documentation

Showing up to 5 results
|